Voltar ao catálogo

KUIPER-00186

AtivoComunicaçõesLEO
NORAD 67140·PAYLOAD·🇺🇸 United States

Lançado Dec 15, 2025 de Cape Canaveral Space Force Station

Loading…

Próximas Passagens (próximas 24 horas)

TLE

AtualizadoSource: CelesTrak SupGP

Época: Sep 15, 2026, 02:40 UTC

1 67140C 25301H   26258.11157407 -.00041541  00000+0 -54363-2 0  2585
2 67140  51.9023 320.5280 0000335  96.1540 143.1388 14.79984486    15

Acompanhe KUIPER-00186 em tempo real com AllMySat

Download on the App Store